TimeHST,TemperatureF,Dew PointF,Humidity,Sea Level PressureIn,VisibilityMPH,Wind Direction,Wind SpeedMPH,Gust SpeedMPH,PrecipitationIn,Events,Conditions,WindDirDegrees,DateUTC
12:56 AM,75.0,75.0,100,30.13,10.0,Calm,Calm,-,N/A,,Partly Cloudy,0,2012-11-14 10:56:00
1:56 AM,71.1,-9999,N/A,30.13,10.0,Calm,Calm,-,N/A,,Clear,0,2012-11-14 11:56:00
2:56 AM,71.1,-9999,N/A,30.12,10.0,ENE,4.6,-,N/A,,Clear,70,2012-11-14 12:56:00
3:56 AM,71.1,55.9,59,30.12,10.0,Calm,Calm,-,N/A,,Clear,0,2012-11-14 13:56:00
4:56 AM,70.0,60.1,71,30.12,10.0,ENE,4.6,-,N/A,,Clear,70,2012-11-14 14:56:00
5:56 AM,71.1,57.0,61,30.13,10.0,SE,5.8,-,N/A,,Partly Cloudy,130,2012-11-14 15:56:00
6:56 AM,71.1,-9999,N/A,30.14,10.0,ENE,4.6,-,N/A,,Clear,60,2012-11-14 16:56:00
7:56 AM,73.9,60.1,62,30.16,10.0,ESE,3.5,-,N/A,,Clear,120,2012-11-14 17:56:00
8:56 AM,79.0,60.1,52,30.16,10.0,Calm,Calm,-,N/A,,Clear,0,2012-11-14 18:56:00
9:56 AM,80.1,61.0,52,30.16,10.0,West,6.9,-,N/A,,Clear,260,2012-11-14 19:56:00
10:56 AM,81.0,81.0,100,30.15,10.0,West,11.5,-,N/A,,Clear,260,2012-11-14 20:56:00
11:56 AM,82.0,63.0,52,30.13,10.0,West,10.4,-,N/A,,Clear,270,2012-11-14 21:56:00
12:56 PM,84.0,69.1,61,30.11,10.0,West,11.5,-,N/A,,Partly Cloudy,260,2012-11-14 22:56:00
1:56 PM,84.0,72.0,67,30.07,10.0,WNW,6.9,-,N/A,,Clear,300,2012-11-14 23:56:00
2:56 PM,84.9,82.0,91,30.06,10.0,NNW,9.2,-,N/A,,Partly Cloudy,340,2012-11-15 00:56:00
3:56 PM,84.9,68.0,57,30.06,10.0,Variable,4.6,17.3,N/A,,Partly Cloudy,0,2012-11-15 01:56:00
4:56 PM,84.0,66.9,56,30.06,10.0,Calm,Calm,-,N/A,,Clear,0,2012-11-15 02:56:00
5:56 PM,82.0,75.0,79,30.09,10.0,SW,3.5,-,N/A,,Mostly Cloudy,230,2012-11-15 03:56:00
6:56 PM,79.0,73.9,84,30.11,10.0,ESE,5.8,-,N/A,,Clear,120,2012-11-15 04:56:00
7:56 PM,75.0,64.9,71,30.12,10.0,SSE,4.6,-,N/A,,Clear,150,2012-11-15 05:56:00
8:56 PM,73.9,55.9,53,30.13,10.0,SSW,3.5,-,N/A,,Clear,210,2012-11-15 06:56:00
9:56 PM,70.0,53.1,55,30.13,10.0,ESE,3.5,-,N/A,,Clear,120,2012-11-15 07:56:00
10:56 PM,73.0,59.0,61,30.14,10.0,SSE,3.5,-,N/A,,Mostly Cloudy,160,2012-11-15 08:56:00
11:56 PM,69.1,59.0,70,30.13,10.0,NNE,3.5,-,N/A,,Clear,30,2012-11-15 09:56:00